This demonstration page uses our WeatherBlox Daily Observations layout. Learn more.

Left ArrowRight Arrow

47.50024, -111.30081

Hourly Observations for April 1, 2018

Temp ( °F °C ) Dew Point ( °F °C ) Humidity (%) Winds ( mph kmh ) Pressure ( in mb ) Visibility ( mi km ) Precip ( " mm )
12:53 am 00:53 Clear 7 -13.9 4 -15.6 87 87 Calm 30.38 1029 10 16 0.00 0.00
1:53 am 01:53 Clear 3 -16.1 0 -17.8 87 87 SSW 6 9 30.35 1028 10 16 0.00 0.00
2:53 am 02:53 Clear 5 -15 0 -17.8 79 79 Calm 30.31 1026 10 16 0.00 0.00
3:53 am 03:53 Mostly Cloudy 5 -15 1 -17.2 83 83 SE 3 6 30.28 1025 10 16 0.00 0.00
4:53 am 04:53 Clear 2 -16.7 -2 -18.9 83 83 Calm 30.27 1025 10 16 0.00 0.00
5:53 am 05:53 Clear 3 -16.1 0 -17.8 87 87 Calm 30.24 1024 10 16 0.00 0.00
6:53 am 06:53 Mostly Clear 5 -15 1 -17.2 83 83 Calm 30.20 1023 10 16 0.00 0.00
7:53 am 07:53 Mostly Cloudy 8 -13.3 5 -15 87 87 ENE 3 6 30.17 1022 10 16 0.00 0.00
8:53 am 08:53 Mostly Cloudy 11 -11.7 6 -14.4 81 81 ESE 5 7 30.14 1021 10 16 0.00 0.00
9:53 am 09:53 Mostly Sunny 14 -10 8 -13.3 77 77 Calm 30.10 1019 10 16 0.00 0.00
10:53 am 10:53 Mostly Cloudy 17 -8.3 8 -13.3 68 68 Calm 30.10 1019 10 16 0.00 0.00
11:53 am 11:53 Cloudy 17 -8.3 11 -11.7 77 77 ESE 7 11 30.05 1018 10 16 0.00 0.00
12:53 pm 12:53 Mostly Cloudy 20 -6.7 14 -10 78 78 E 7 11 30.00 1016 10 16 0.00 0.00
1:53 pm 13:53 Cloudy 24 -4.4 16 -8.9 71 71 E 9 15 29.97 1015 10 16 0.00 0.00
2:53 pm 14:53 Cloudy 27 -2.8 19 -7.2 72 72 E 8 13 29.93 1014 10 16 0.00 0.00
3:53 pm 15:53 Cloudy 29 -1.7 22 -5.6 75 75 ESE 9 15 29.90 1013 10 16 0.00 0.00
4:53 pm 16:53 Sunny 29 -1.7 23 -5 78 78 ESE 9 15 29.88 1012 10 16 0.00 0.00
5:53 pm 17:53 Mostly Cloudy 30 -1.1 22 -5.6 72 72 ENE 8 13 29.87 1012 10 16 0.00 0.00
6:53 pm 18:53 Cloudy 30 -1.1 24 -4.4 79 79 E 6 9 29.85 1011 10 16 0.00 0.00
7:53 pm 19:53 Cloudy 28 -2.2 23 -5 81 81 ENE 13 20 29.84 1010 10 16 0.00 0.00
8:53 pm 20:53 Cloudy 25 -3.9 20 -6.7 81 81 ENE 14 22 29.84 1010 10 16 0.00 0.00
9:53 pm 21:53 Cloudy 23 -5 19 -7.2 85 85 NE 14 22 29.83 1010 10 16 0.00 0.00
10:53 pm 22:53 Partly Cloudy 20 -6.7 17 -8.3 89 89 NNE 12 19 29.84 1010 10 16 0.00 0.00
11:27 pm 23:27 Cloudy 20 -6.7 17 -8.3 89 89 N 13 20 29.88 1012 10 16 0.00 0.00
11:44 pm 23:44 Cloudy 19 -7.2 16 -8.9 88 88 N 14 22 29.91 1013 10 16 0.00 0.00
11:53 pm 23:53 Cloudy 19 -7.2 16 -8.9 88 88 N 12 19 29.86 1011 10 16 0.00 0.00

Powered by AerisWeather